GW1438 Weather Reports


time (UTC)temp
C
wind
direction
speed
KPH
gust
KPH
rain 1hr
cm
rain 24hr
cm
rain mn
cm
humidity
%
barometer
mb
20260504204925 24 214 1.6 1.6 0.00 0.00 0.00 34 1011.5
20260504204423 24 127 1.6 1.6 0.00 0.00 0.00 33 1011.5
20260504203922 24 4 3.2 3.2 0.00 0.00 0.00 32 1011.3
20260504203420 24 241 0.0 1.6 0.00 0.00 0.00 37 1011.5
20260504202915 24 207 4.8 8.0 0.00 0.00 0.00 34 1011.7
20260504202412 24 350 3.2 3.2 0.00 0.00 0.00 34 1011.6
20260504201909 24 215 0.0 1.6 0.00 0.00 0.00 33 1011.6
20260504201406 24 359 3.2 3.2 0.00 0.00 0.00 34 1011.5
20260504200903 24 203 3.2 3.2 0.00 0.00 0.00 34 1012.0
20260504200400 24 9 3.2 3.2 0.00 0.00 0.00 35 1011.8
20260504195856 24 329 1.6 3.2 0.00 0.00 0.00 33 1011.8
20260504195352 24 289 3.2 4.8 0.00 0.00 0.00 34 1011.8
20260504194849 23 243 0.0 1.6 0.00 0.00 0.00 40 1012.1
20260504194345 23 164 1.6 3.2 0.00 0.00 0.00 35 1012.2
20260504193841 23 275 1.6 1.6 0.00 0.00 0.00 34 1012.0
20260504193338 23 233 1.6 1.6 0.00 0.00 0.00 37 1012.2
20260504192837 24 209 0.0 0.0 0.00 0.00 0.00 36 1012.4
20260504192335 23 98 0.0 3.2 0.00 0.00 0.00 38 1012.4
20260504191833 23 265 3.2 3.2 0.00 0.00 0.00 37 1012.5
20260504191330 23 269 3.2 3.2 0.00 0.00 0.00 35 1012.6
20260504190826 23 305 1.6 4.8 0.00 0.00 0.00 37 1012.5
20260504190322 23 217 1.6 1.6 0.00 0.00 0.00 35 1013.0
20260504185819 23 293 1.6 1.6 0.00 0.00 0.00 37 1013.0
20260504185316 23 186 1.6 3.2 0.00 0.00 0.00 35 1013.1
20260504184812 23 250 1.6 3.2 0.00 0.00 0.00 36 1013.0
20260504184308 23 359 1.6 1.6 0.00 0.00 0.00 35 1013.4
20260504183803 23 227 0.0 1.6 0.00 0.00 0.00 36 1013.4
20260504183301 23 218 1.6 1.6 0.00 0.00 0.00 36 1013.5
20260504182759 23 188 1.6 1.6 0.00 0.00 0.00 35 1013.5
20260504182255 23 299 3.2 3.2 0.00 0.00 0.00 38 1013.5
20260504181753 23 264 4.8 8.0 0.00 0.00 0.00 35 1013.7
20260504181250 22 235 0.0 1.6 0.00 0.00 0.00 37 1013.7
20260504180749 22 327 3.2 3.2 0.00 0.00 0.00 36 1013.7
20260504180248 22 254 1.6 3.2 0.00 0.00 0.00 40 1013.9
20260504175745 22 317 4.8 8.0 0.00 0.00 0.00 37 1014.0
20260504175241 22 355 3.2 4.8 0.00 0.00 0.00 35 1014.1
20260504174739 22 7 3.2 3.2 0.00 0.00 0.00 36 1014.0
20260504174237 22 234 3.2 4.8 0.00 0.00 0.00 34 1014.1
20260504173733 22 339 1.6 1.6 0.00 0.00 0.00 37 1014.0
20260504173230 22 285 1.6 3.2 0.00 0.00 0.00 37 1014.3
20260504172727 22 145 3.2 4.8 0.00 0.00 0.00 37 1014.3
20260504172224 22 258 1.6 1.6 0.00 0.00 0.00 41 1014.2
20260504171720 21 299 1.6 4.8 0.00 0.00 0.00 37 1014.3
20260504171217 21 296 1.6 1.6 0.00 0.00 0.00 40 1014.4
20260504170714 22 228 1.6 3.2 0.00 0.00 0.00 36 1014.7
20260504170211 22 270 3.2 3.2 0.00 0.00 0.00 37 1014.6
20260504160129 20 315 4.8 4.8 0.00 0.00 0.00 36 1015.3
20260504151057 20 245 1.6 1.6 0.00 0.00 0.00 37 1015.5
20260504150554 20 268 3.2 3.2 0.00 0.00 0.00 39 1015.7
20260504141014 18 176 3.2 3.2 0.00 0.00 0.00 42 1015.6
20260504140511 19 187 1.6 3.2 0.00 0.00 0.00 42 1015.8
20260504130435 14 312 1.6 1.6 0.00 0.00 0.00 51 1016.2
20260504110323 9 212 0.0 0.0 0.00 0.00 0.00 67 1016.6
20260504100240 8 212 0.0 1.6 0.00 0.00 0.00 68 1016.8
20260504081633 8 215 0.0 0.0 0.00 0.00 0.00 70 1017.1
20260504081130 8 226 0.0 0.0 0.00 0.00 0.00 69 1017.1
20260504080626 8 213 0.0 1.6 0.00 0.00 0.00 72 1017.0
20260504080123 8 222 0.0 0.0 0.00 0.00 0.00 72 1017.1
20260504050439 8 199 0.0 0.0 0.00 0.00 0.00 53 1017.4
20260504045936 8 218 0.0 0.0 0.00 0.00 0.00 55 1017.3
20260504045432 8 220 0.0 0.0 0.00 0.00 0.00 58 1017.4
20260504044928 7 217 0.0 0.0 0.00 0.00 0.00 59 1017.3
20260504044426 7 211 0.0 0.0 0.00 0.00 0.00 61 1017.5
20260504043923 7 209 0.0 0.0 0.00 0.00 0.00 60 1017.5
20260504043420 7 218 0.0 0.0 0.00 0.00 0.00 60 1017.2
20260504042917 7 219 0.0 0.0 0.00 0.00 0.00 61 1017.2
20260504042414 7 219 0.0 0.0 0.00 0.00 0.00 61 1017.3
20260504041910 7 217 0.0 0.0 0.00 0.00 0.00 62 1017.3
20260504041406 7 219 0.0 0.0 0.00 0.00 0.00 62 1017.3
20260504040903 7 219 0.0 0.0 0.00 0.00 0.00 63 1017.2
20260504040400 7 219 0.0 0.0 0.00 0.00 0.00 62 1017.4
20260504035856 7 219 0.0 0.0 0.00 0.00 0.00 63 1017.4
20260504035354 7 219 0.0 0.0 0.00 0.00 0.00 63 1017.4
20260504034850 7 213 0.0 0.0 0.00 0.00 0.00 62 1017.3
20260504034348 7 220 0.0 0.0 0.00 0.00 0.00 62 1017.3
20260504033844 7 224 0.0 0.0 0.00 0.00 0.00 63 1017.3
20260504033343 7 217 0.0 0.0 0.00 0.00 0.00 62 1017.1
20260504032839 7 211 0.0 1.6 0.00 0.00 0.00 63 1017.1
20260504032336 7 219 0.0 0.0 0.00 0.00 0.00 64 1017.0
20260504031833 7 219 0.0 0.0 0.00 0.00 0.00 65 1017.0
20260504031330 6 224 0.0 0.0 0.00 0.00 0.00 68 1017.1
20260504030826 6 218 0.0 0.0 0.00 0.00 0.00 68 1016.7
20260504030324 6 223 0.0 0.0 0.00 0.00 0.00 69 1016.9
20260504025820 6 226 0.0 0.0 0.00 0.00 0.00 69 1016.8
20260504025317 6 225 0.0 0.0 0.00 0.00 0.00 69 1016.9
20260504024814 6 226 0.0 0.0 0.00 0.00 0.00 70 1016.9
20260504024310 6 225 0.0 0.0 0.00 0.00 0.00 70 1016.9
20260504023807 6 220 0.0 0.0 0.00 0.00 0.00 70 1016.7
20260504023303 6 219 0.0 0.0 0.00 0.00 0.00 71 1016.7
20260504022759 7 217 0.0 0.0 0.00 0.00 0.00 70 1016.8
20260504022256 7 218 0.0 0.0 0.00 0.00 0.00 69 1017.0
20260504021753 7 218 0.0 0.0 0.00 0.00 0.00 68 1016.6
20260504021250 7 221 0.0 0.0 0.00 0.00 0.00 67 1016.9
20260504020747 7 222 0.0 0.0 0.00 0.00 0.00 65 1016.8
20260504020243 7 223 0.0 0.0 0.00 0.00 0.00 65 1016.7
20260504015739 7 221 0.0 0.0 0.00 0.00 0.00 65 1016.8
20260504015236 7 221 0.0 0.0 0.00 0.00 0.00 65 1016.8
20260504014732 7 220 0.0 0.0 0.00 0.00 0.00 65 1016.6
20260504014229 8 220 0.0 0.0 0.00 0.00 0.00 63 1016.5
20260504013727 8 222 0.0 0.0 0.00 0.00 0.00 63 1016.7
20260504013224 8 222 0.0 0.0 0.00 0.00 0.00 62 1016.8
20260504012720 8 222 0.0 0.0 0.00 0.00 0.00 61 1016.5
20260504012218 8 224 0.0 0.0 0.00 0.00 0.00 60 1016.5
20260504011715 8 224 0.0 0.0 0.00 0.00 0.00 59 1016.5
20260504011212 8 224 0.0 0.0 0.00 0.00 0.00 59 1016.6
20260504010708 8 220 0.0 0.0 0.00 0.00 0.00 58 1016.7
20260504010203 9 220 0.0 0.0 0.00 0.00 0.00 58 1016.6
20260504005700 9 220 0.0 0.0 0.00 0.00 0.00 55 1016.6
20260504005157 9 219 0.0 0.0 0.00 0.00 0.00 54 1016.4
20260504004655 10 219 0.0 0.0 0.00 0.00 0.00 54 1016.3
20260504004152 10 218 0.0 0.0 0.00 0.00 0.00 53 1016.4
20260504003648 10 217 0.0 0.0 0.00 0.00 0.00 51 1016.0
20260504003145 10 217 0.0 0.0 0.00 0.00 0.00 50 1016.1
20260504002642 11 217 0.0 0.0 0.00 0.00 0.00 51 1016.0
20260504002139 11 223 0.0 0.0 0.00 0.00 0.00 46 1016.2
20260504001637 11 220 0.0 0.0 0.00 0.00 0.00 46 1016.1
20260504001133 11 220 0.0 0.0 0.00 0.00 0.00 45 1016.2
20260504000630 12 220 0.0 0.0 0.00 0.00 0.00 45 1016.0
20260504000128 12 220 0.0 0.0 0.00 0.00 0.00 44 1015.8
20260503235626 12 220 0.0 0.0 0.00 0.00 0.00 41 1015.8
20260503235122 13 215 0.0 0.0 0.00 0.00 0.00 41 1016.0
20260503234620 13 210 0.0 0.0 0.00 0.00 0.00 39 1015.9
20260503234118 14 220 0.0 0.0 0.00 0.00 0.00 34 1015.7
20260503233615 14 234 1.6 1.6 0.00 0.00 0.00 34 1015.7
20260503233110 14 236 0.0 0.0 0.00 0.00 0.00 33 1015.9
20260503232608 15 234 0.0 1.6 0.00 0.00 0.00 33 1015.5
20260503232105 15 235 0.0 0.0 0.00 0.00 0.00 34 1015.7
20260503231603 15 229 0.0 0.0 0.00 0.00 0.00 35 1015.6
20260503231059 15 241 0.0 1.6 0.00 0.00 0.00 34 1015.8
20260503230556 15 220 0.0 0.0 0.00 0.00 0.00 32 1015.5
20260503230053 15 234 1.6 1.6 0.00 0.00 0.00 34 1015.5
20260503225550 15 235 0.0 0.0 0.00 0.00 0.00 33 1015.6
20260503225045 15 204 0.0 0.0 0.00 0.00 0.00 32 1015.6
20260503224543 15 215 0.0 0.0 0.00 0.00 0.00 33 1015.6
20260503224040 15 236 1.6 3.2 0.00 0.00 0.00 32 1015.6
20260503223539 15 222 1.6 1.6 0.00 0.00 0.00 31 1015.6
20260503223033 15 156 1.6 3.2 0.00 0.00 0.00 31 1015.7
20260503222532 16 237 1.6 1.6 0.00 0.00 0.00 30 1015.7
20260503222030 16 239 3.2 4.8 0.00 0.00 0.00 29 1016.0
20260503221528 17 326 3.2 3.2 0.00 0.00 0.00 28 1015.8
20260503221025 16 16 3.2 4.8 0.00 0.00 0.00 29 1015.9
20260503220521 17 255 1.6 1.6 0.00 0.00 0.00 28 1015.8
20260503220018 17 239 0.0 0.0 0.00 0.00 0.00 30 1015.6
20260503215515 17 246 0.0 1.6 0.00 0.00 0.00 28 1015.6
20260503215012 17 242 1.6 1.6 0.00 0.00 0.00 29 1015.7
20260503214510 17 234 1.6 3.2 0.00 0.00 0.00 29 1015.8
20260503214007 16 245 0.0 1.6 0.00 0.00 0.00 30 1016.0
20260503213505 17 2 3.2 4.8 0.00 0.00 0.00 30 1015.8
20260503213001 17 233 0.0 0.0 0.00 0.00 0.00 32 1015.8
20260503212459 17 311 1.6 3.2 0.00 0.00 0.00 28 1016.0
20260503211956 16 241 1.6 3.2 0.00 0.00 0.00 31 1015.8
20260503211453 16 234 3.2 4.8 0.00 0.00 0.00 31 1015.8
20260503210949 16 240 0.0 1.6 0.00 0.00 0.00 31 1015.7
20260503210445 16 245 1.6 1.6 0.00 0.00 0.00 31 1015.9
20260503205940 16 258 3.2 3.2 0.00 0.00 0.00 29 1015.9
20260503205437 15 248 0.0 1.6 0.00 0.00 0.00 33 1015.8